Regional Weather Roundup
Issued by NWS

Home | Current Version | Previous Version | Text Only | Print | Product List | Glossary Off
Versions: 1 2 3 4 5 6 7 8 9 10 11 12 13 14 15 16 17 18 19 20 21 22 23 24 25 26 27 28 29 30 31 32 33 34 35 36 37 38 39 40 41 42 43 44 45 46 47 48 49 50

944
ASUS43 KLSX 231407
RWRMO

WEATHER SUMMARY FOR MISSOURI
NATIONAL WEATHER SERVICE SPRINGFIELD MO
800 AM CST FRI FEB 23 2018

NOTE: "FAIR" INDICATES FEW OR NO CLOUDS BELOW 12,000 FEET WITH NO
       SIGNIFICANT WEATHER AND/OR OBSTRUCTIONS TO VISIBILITY.
       CURRENT SKY AND/OR WEATHER CONDITIONS ARE NOT AVAILABLE FOR
       CHILLICOTHE AND FARMINGTON.

MOZ001>031-035>038-043-044-053-054-231500-
...NORTHERN AND WESTERN MISSOURI...

CITY           SKY/WX    TMP DP  RH WIND       PRES   REMARKS
KANSAS CTY INT CLOUDY    32  31  96 NW5       30.27R WCI  27
KANSAS C DTWN  CLOUDY    35  31  85 CALM      30.29R FOG
LEE`S SUMMIT     N/A     33  33 100 W5        30.27R WCI  29
ST JOSEPH      MOCLDY    31  29  92 NW8       30.28R WCI  23
CHILLICOTHE      N/A     34  32  92 CALM      30.28R
KIRKSVILLE     CLOUDY    33  33 100 W10       30.24R WCI  25

$$
MOZ066>068-077>081-088>096-101>105-231500-
...SOUTHWEST MISSOURI...

CITY           SKY/WX    TMP DP  RH WIND       PRES   REMARKS
SPRINGFIELD    CLOUDY    40  40 100 W5        30.27R FOG
JOPLIN         CLOUDY    37  37 100 CALM      30.29R
BRANSON        CLOUDY    41  41 100 CALM      30.29S FOG

$$
MOZ032>034-039>042-045>050-055>058-069>072-231500-
...CENTRAL MISSOURI...

CITY           SKY/WX    TMP DP  RH WIND       PRES   REMARKS
COLUMBIA       CLOUDY    39  37  92 W8        30.26R
JEFFERSON CITY CLOUDY    41  37  86 W8        30.28R
ROLLA          CLOUDY    42  42 100 W8        30.26R
SEDALIA        CLOUDY    37  37 100 W5        30.29R
WHITEMAN AFB   CLOUDY    35  33  91 SW3       30.24R
WARRENSBURG    CLOUDY    34  34 100 CALM      30.28R
OSAGE BEACH    CLOUDY    40  39  97 CALM      30.29R

$$
MOZ051-052-059>065-231500-
...EAST CENTRAL MISSOURI...

CITY           SKY/WX    TMP DP  RH WIND       PRES   REMARKS
ST LOUIS INTL  CLOUDY    46  44  93 W10       30.24S
SPIRIT OF STL  CLOUDY    45  44  97 W5        30.24S
ST CHARLES       N/A     45  42  89 W6        30.24R

$$
MOZ072>076-082>087-097>100-106>115-231500-
...SOUTH CENTRAL AND SOUTHEAST MISSOURI...

CITY           SKY/WX    TMP DP  RH WIND       PRES   REMARKS
CAPE GIRARDEAU CLOUDY    52  50  93 W7        30.29R
FARMINGTON     CLOUDY    47  45  93 W5        30.27R
POPLAR BLUFF   PTSUNNY   49  48  97 MISG      30.30R
WEST PLAINS    CLOUDY    44  43  96 NW5       30.28R

$$



USA.gov is the U.S. government's official web portal to all federal, state and local government web resources and services.